Terug naar catalogus

GALAXY 31

ActiefCommunicatieGEO
NORAD 54243·PAYLOAD·🇺🇸 United States

Gelanceerd Nov 12, 2022 vanaf Cape Canaveral Space Force Station

Loading…

TLE

VersSource: CelesTrak SupGP

Epoch: Sep 14, 2026, 00:00 UTC

1 54243C 22153A   26257.00000000  .00000103  00000+0  00000+0 0  2572
2 54243   0.0225 237.2873 0001292 284.0198  70.6832  1.00272302    11

Volg GALAXY 31 in realtime met AllMySat

Download on the App Store